Weather History for KAUH - October, 2013

Change the Weather History Date:

Sunday, October 13, 2013

  Actual Average Record
Temperature  
Mean Temperature 54 °F -  
Max Temperature 69 °F 67 °F 93 °F (1975)
Min Temperature 40 °F 40 °F 26 °F (1986)
Degree Days  
Heating Degree Days 10    
Growing Degree Days 4 (Base 50)    
Moisture  
Dew Point 35 °F    
Average Humidity 51    
Maximum Humidity 86    
Minimum Humidity 25    
Precipitation  
Precipitation 0.00 in - - ()
Sea Level Pressure  
Sea Level Pressure 30.30 in    
Wind  
Wind Speed 8 mph (SE)    
Max Wind Speed 17 mph    
Max Gust Speed 25 mph    
Visibility 10 miles    
Events Rain , Thunderstorm    
Averages and records for this station are not official NWS values.
T = Trace of Precipitation, MM = Missing Value Source: NWS Daily Summary

Daily Weather History Graph

Daily Weather History Graph

Search for Another Location

Airport or City:

Trip Planner

Search our weather history database for the weather conditions in past years. The results will help you decide how hot, cold, wet, or windy it might be!

Date:

Astronomy

Oct. 13, 2013 Rise Set
Actual Time 7:41 AM CDT 6:54 PM CDT
Civil Twilight 7:13 AM CDT 7:21 PM CDT
Nautical Twilight 6:42 AM CDT 7:53 PM CDT
Astronomical Twilight 6:10 AM CDT 8:25 PM CDT
Moon 3:48 PM CDT (10/13) 1:50 AM CDT (10/13)
Length of Visible Light 12h 07m
Length of Day
11h 12m
Waxing Gibbous, 69% of the Moon is Illuminated
Oct 13
Waxing Gibbous
Oct 18
Full
Oct 26
Last Quarter
Nov 3
New
Nov 9
First Quarter

Hourly Weather History & Observations

Time (CDT) Temp. Windchill Dew Point Humidity Pressure Visibility Wind Dir Wind Speed Gust Speed Precip Events Conditions
12:15 AM 47.7 °F - 36.7 °F 66% 30.28 in 3.0 mi ENE 5.8 mph - N/A   Haze
12:35 AM 47.3 °F - 36.7 °F 67% 30.29 in 10.0 mi East 4.6 mph - N/A   Overcast
12:55 AM 47.3 °F - 36.1 °F 65% 30.30 in 10.0 mi East 4.6 mph - N/A   Overcast
1:15 AM 46.4 °F 44.3 °F 37.0 °F 70% 30.31 in 10.0 mi East 4.6 mph - N/A   Overcast
1:35 AM 47.1 °F - 37.6 °F 69% 30.30 in 10.0 mi East 4.6 mph - N/A   Overcast
1:55 AM 46.9 °F - 37.8 °F 70% 30.31 in 10.0 mi East 3.5 mph - N/A   Overcast
2:15 AM 47.1 °F - 37.4 °F 69% 30.32 in 10.0 mi ESE 3.5 mph - N/A   Overcast
2:35 AM 46.4 °F 45.2 °F 36.9 °F 69% 30.32 in 10.0 mi East 3.5 mph - N/A   Mostly Cloudy
2:55 AM 45.0 °F 43.5 °F 36.7 °F 73% 30.32 in 10.0 mi ESE 3.5 mph - N/A   Mostly Cloudy
3:15 AM 44.6 °F 42.2 °F 36.9 °F 74% 30.32 in 10.0 mi ESE 4.6 mph - N/A   Overcast
3:35 AM 44.6 °F 42.2 °F 37.4 °F 76% 30.32 in 10.0 mi East 4.6 mph - N/A   Overcast
3:55 AM 45.1 °F 42.8 °F 37.6 °F 75% 30.32 in 10.0 mi ESE 4.6 mph - N/A   Overcast
4:15 AM 45.9 °F 42.9 °F 37.2 °F 72% 30.32 in 10.0 mi ESE 5.8 mph - N/A   Overcast
4:35 AM 45.5 °F 43.2 °F 37.4 °F 73% 30.32 in 10.0 mi ESE 4.6 mph - N/A   Overcast
4:55 AM 45.5 °F 43.2 °F 37.6 °F 74% 30.32 in 10.0 mi ESE 4.6 mph - N/A   Overcast
5:15 AM 45.9 °F 43.6 °F 36.9 °F 71% 30.32 in 10.0 mi ESE 4.6 mph - N/A   Overcast
5:35 AM 45.0 °F 42.6 °F 37.9 °F 76% 30.32 in 10.0 mi East 4.6 mph - N/A   Overcast
5:55 AM 44.2 °F 41.8 °F 37.4 °F 77% 30.32 in 10.0 mi East 4.6 mph - N/A   Mostly Cloudy
6:15 AM 43.2 °F 40.5 °F 37.2 °F 80% 30.34 in 10.0 mi East 4.6 mph - N/A   Mostly Cloudy
6:35 AM 42.1 °F 38.4 °F 36.5 °F 81% 30.34 in 10.0 mi East 5.8 mph - N/A   Scattered Clouds
6:55 AM 41.5 °F 38.6 °F 36.5 °F 82% 30.34 in 10.0 mi East 4.6 mph - N/A   Scattered Clouds
7:15 AM 41.0 °F 38.0 °F 36.5 °F 84% 30.35 in 10.0 mi East 4.6 mph - N/A   Mostly Cloudy
7:35 AM 40.3 °F 36.3 °F 36.5 °F 86% 30.35 in 10.0 mi East 5.8 mph - N/A   Scattered Clouds
7:55 AM 40.1 °F 36.1 °F 36.0 °F 85% 30.35 in 10.0 mi ESE 5.8 mph - N/A   Clear
8:15 AM 41.5 °F 38.6 °F 36.1 °F 81% 30.36 in 10.0 mi ESE 4.6 mph - N/A   Clear
8:35 AM 43.3 °F 40.7 °F 37.4 °F 80% 30.37 in 10.0 mi ESE 4.6 mph - N/A   Clear
8:55 AM 46.6 °F - 36.5 °F 68% 30.38 in 10.0 mi SE 4.6 mph - N/A   Clear
9:15 AM 48.9 °F - 36.0 °F 61% 30.38 in 10.0 mi SE 6.9 mph - N/A   Clear
9:35 AM 51.4 °F - 36.1 °F 56% 30.38 in 10.0 mi SE 6.9 mph - N/A   Clear
9:55 AM 54.0 °F - 35.1 °F 49% 30.39 in 10.0 mi SE 9.2 mph - N/A   Clear
10:15 AM 56.3 °F - 34.5 °F 44% 30.39 in 10.0 mi SE 6.9 mph - N/A   Clear
10:55 AM 59.7 °F - 32.0 °F 35% 30.39 in 10.0 mi SE 15.0 mph - N/A   Clear
11:15 AM 61.7 °F - 32.0 °F 33% 30.38 in 10.0 mi SE 12.7 mph - N/A   Clear
11:35 AM 63.3 °F - 33.3 °F 33% 30.38 in 10.0 mi SSE 16.1 mph 19.6 mph N/A   Clear
11:55 AM 63.7 °F - 32.2 °F 31% 30.37 in 10.0 mi SSE 16.1 mph 20.7 mph N/A   Clear
12:15 PM 64.9 °F - 32.4 °F 30% 30.37 in 10.0 mi SSE 15.0 mph 19.6 mph N/A   Clear
12:35 PM 65.3 °F - 32.0 °F 29% 30.36 in 10.0 mi SSE 13.8 mph 20.7 mph N/A   Clear
12:55 PM 66.2 °F - 32.0 °F 28% 30.36 in 10.0 mi SE 13.8 mph 20.7 mph N/A   Clear
1:15 PM 67.5 °F - 32.5 °F 27% 30.34 in 10.0 mi SSE 15.0 mph - N/A   Clear
1:35 PM 67.1 °F - 31.8 °F 27% 30.34 in 10.0 mi SSE 15.0 mph 20.7 mph N/A   Clear
1:55 PM 68.0 °F - 31.8 °F 26% 30.32 in 10.0 mi SSE 15.0 mph 24.2 mph N/A   Clear
2:15 PM 68.5 °F - 31.8 °F 26% 30.31 in 10.0 mi South 13.8 mph 20.7 mph N/A   Clear
2:35 PM 68.9 °F - 32.5 °F 26% 30.30 in 10.0 mi South 10.4 mph 19.6 mph N/A   Clear
2:55 PM 69.1 °F - 32.2 °F 25% 30.29 in 10.0 mi SSE 16.1 mph 21.9 mph N/A   Clear
3:15 PM 69.3 °F - 33.3 °F 26% 30.28 in 10.0 mi SSE 13.8 mph 21.9 mph N/A   Clear
3:35 PM 69.3 °F - 32.5 °F 26% 30.27 in 10.0 mi SSE 13.8 mph 21.9 mph N/A   Clear
3:55 PM 69.3 °F - 32.4 °F 26% 30.27 in 10.0 mi SE 13.8 mph 21.9 mph N/A   Clear
4:15 PM 69.4 °F - 32.9 °F 26% 30.26 in 10.0 mi South 17.3 mph 20.7 mph N/A   Clear
4:35 PM 69.1 °F - 32.5 °F 26% 30.25 in 10.0 mi SE 13.8 mph 25.3 mph N/A   Clear
4:55 PM 68.9 °F - 32.2 °F 26% 30.24 in 10.0 mi SSE 15.0 mph 20.7 mph N/A   Clear
5:15 PM 68.4 °F - 31.5 °F 25% 30.23 in 10.0 mi SSE 17.3 mph 23.0 mph N/A   Clear
5:35 PM 68.0 °F - 32.2 °F 26% 30.23 in 10.0 mi SE 15.0 mph 23.0 mph N/A   Clear
5:55 PM 67.1 °F - 32.2 °F 27% 30.24 in 10.0 mi SE 13.8 mph 18.4 mph N/A   Clear
6:15 PM 66.0 °F - 32.7 °F 29% 30.24 in 10.0 mi SE 11.5 mph 19.6 mph N/A   Clear
6:35 PM 64.4 °F - 32.9 °F 31% 30.24 in 10.0 mi SE 12.7 mph - N/A   Clear
6:55 PM 62.2 °F - 33.4 °F 34% 30.24 in 10.0 mi SE 8.1 mph - N/A   Clear
7:15 PM 59.5 °F - 34.7 °F 39% 30.25 in 10.0 mi SE 8.1 mph - N/A   Clear
7:35 PM 57.7 °F - 35.6 °F 44% 30.25 in 7.0 mi ESE 5.8 mph - N/A   Clear
7:55 PM 57.6 °F - 35.8 °F 44% 30.24 in 7.0 mi ESE 8.1 mph - N/A   Scattered Clouds
8:15 PM 57.7 °F - 36.1 °F 44% 30.25 in 10.0 mi ESE 9.2 mph - N/A   Scattered Clouds
8:35 PM 57.7 °F - 36.1 °F 44% 30.25 in 7.0 mi ESE 9.2 mph - N/A   Scattered Clouds
8:55 PM 56.5 °F - 36.7 °F 48% 30.25 in 10.0 mi ESE 9.2 mph - N/A   Clear
9:15 PM 55.4 °F - 36.7 °F 49% 30.24 in 10.0 mi SE 11.5 mph - N/A   Scattered Clouds
9:35 PM 55.4 °F - 36.7 °F 49% 30.24 in 10.0 mi SE 11.5 mph - N/A Thunderstorm Scattered Clouds
9:55 PM 56.3 °F - 36.9 °F 48% 30.24 in 10.0 mi SE 11.5 mph - N/A   Scattered Clouds
10:15 PM 57.4 °F - 36.7 °F 46% 30.24 in 10.0 mi SE 13.8 mph - N/A   Overcast
10:35 PM 57.7 °F - 36.5 °F 45% 30.23 in 10.0 mi SE 13.8 mph 21.9 mph N/A   Overcast
10:55 PM 58.1 °F - 36.5 °F 44% 30.23 in 10.0 mi SE 15.0 mph - N/A   Overcast
11:15 PM 57.6 °F - 36.9 °F 46% 30.24 in 10.0 mi SE 13.8 mph - N/A   Overcast
11:35 PM 57.9 °F - 37.8 °F 47% 30.22 in 10.0 mi SE 15.0 mph - N/A Rain Light Rain
11:55 PM 57.2 °F - 37.4 °F 48% 30.21 in 10.0 mi SE 11.5 mph - N/A Thunderstorm Mostly Cloudy